Location: Niagara
(43.2500°N, 79.0670°W)
Time: 00:05:24
(UTC-05:00)

OTV 5 (USA 277) - Pass Details

Date: 13 October 2017
Orbit: 404 x 417 km, 43.0° (Epoch: 07 September)

Event Time Altitude Azimuth Distance (km) Brightness Sun altitude
Rises 20:23:21 0° 263° (W) 2,353 ? -20.3°
Reaches altitude 10° 20:25:28 10° 262° (W) 1,490 ? -20.7°
Enters shadow 20:28:29 69° 250° (WSW) 449 ? -21.2°
